Location: Maddington
(51.2000°N, 1.9167°W)
Time: 22:05:02
(UTC+00:00)

ATLAS 3B R/B - Pass Details

Date: 18 September 2020
Orbit: 1016 x 1179 km, 63.8° (Epoch: 28 October)

Event Time Altitude Azimuth Distance (km) Brightness Sun altitude
Rises 23:10:41 0° 312° (NW) 3,846 6.3 -36.3°
Reaches altitude 10° 23:13:40 10° 301° (WNW) 2,912 5.4 -36.4°
Enters shadow 23:17:17 24° 273° (W) 2,088 4.3 -36.6°
